Location: Camerons Lookout
(40.9833°S, 175.9333°E)
Time: 19:59:50
(UTC+00:00)

USA 238 DEB - Pass Details

Date: 14 January 2026
Orbit: 883 x 1328 km, 63.4° (Epoch: 10 January)

Event Time Altitude Azimuth Distance (km) Brightness Sun altitude
Rises 10:30:59 0° 322° (NW) 4,313 6.6 -22.3°
Reaches altitude 10° 10:33:53 10° 320° (NW) 3,326 6.0 -22.6°
Maximum altitude 10:42:02 77° 234° (SW) 1,289 4.1 -23.3°
Drops below altitude 10° 10:49:35 10° 148° (SSE) 3,091 6.5 -23.9°
Sets 10:52:12 0° 146° (SE) 3,995 7.1 -24.1°
